Location: Bermeries
(50.2863°N, 3.7551°E)
Time: 04:40:53
(UTC+00:00)

Cosmos 2208 Rocket - Pass Details

Date: 23 May 2024
Orbit: 753 x 803 km, 74.0° (Epoch: 19 June)

Event Time Altitude Azimuth Distance (km) Brightness Sun altitude
Rises 02:54:50 0° 335° (NNW) 3,283 7.6 -7.3°
Reaches altitude 10° 02:57:15 10° 335° (NNW) 2,343 6.8 -7.0°
Maximum altitude 03:02:34 86° 248° (WSW) 780 4.0 -6.4°
Drops below altitude 10° 03:07:47 10° 160° (SSE) 2,294 6.3 -5.8°
Sets 03:10:08 0° 160° (SSE) 3,209 7.0 -5.5°
